Location: Sewell
(39.7660°N, 75.1450°W)
Time: 05:40:51
(UTC-05:00)

ISS - Visible Passes

Search period start: 22 December 2014 00:00
Search period end: 01 January 2015 00:00
Orbit: 404 x 414 km, 51.6° (Epoch: 22 December)

Date Brightness Start Highest point End Pass type
(mag) Time Alt. Az. Time Alt. Az. Time Alt. Az.
22 Dec -1.0 18:41:12 10° NW 18:42:17 18° NNW 18:42:17 18° NNW visible
23 Dec -2.1 17:50:33 10° NNW 17:53:21 25° NNE 17:53:54 24° NE visible
24 Dec -2.7 18:35:55 10° NW 18:38:28 51° WNW 18:38:28 51° WNW visible
25 Dec -3.1 17:45:03 10° NW 17:48:16 51° NNE 17:50:30 18° ESE visible
25 Dec 0.0 19:22:26 10° W 19:23:19 14° WSW 19:23:19 14° WSW visible
26 Dec -1.5 18:30:49 10° WNW 18:33:45 30° SW 18:35:43 16° S visible
27 Dec -2.7 17:39:36 10° WNW 17:42:50 60° SW 17:46:03 10° SE visible
28 Dec 0.1 18:26:44 10° WSW 18:27:57 12° SW 18:29:10 10° SSW visible
29 Dec -0.5 17:34:28 10° W 17:37:04 22° SW 17:39:40 10° S visible
